[[[{"header":{"parameterUnit":"kt","parameterCategory":2,"dx":1,"dy":1,"la1":30.253999710083008,"la2":30.299108505249023,"lo1":-89.0895004272461,"lo2":-89.04439544677734,"nx":28,"ny":28,"refTime":"2022-10-11T21:00:00:Z","depth":0,"parameterNumber":1,"parameterNumberName":"U-component_of_WINDS"},"data":[3.8257,3.8327,3.8325,3.8405,3.8417,3.8472,3.8491,3.8516,3.8536,3.8602,3.864,3.8647,3.8668,3.8714,3.8757,3.8759,3.8779,3.8804,3.8803,3.8688,3.8672,3.8657,3.8641,3.8807,3.8807,3.8923,3.8924,3.8925,3.8173,3.8185,3.8226,3.8266,3.8301,3.8276,3.8305,3.8338,3.8388,3.8412,3.845,3.8509,3.8555,3.8568,3.8613,3.8648,3.864,3.8661,3.866,3.8664,3.854,3.8523,3.8666,3.8666,3.8666,3.8666,3.8666,3.8666,3.802,3.8062,3.8084,3.8129,3.8148,3.8175,3.8215,3.8222,3.8263,3.8309,3.83,3.8357,3.8383,3.8438,3.8456,3.8502,3.848,3.8503,3.8509,3.8516,3.8524,3.836,3.8509,3.8509,3.8509,3.8508,3.8508,0,3.7908,3.7904,3.7943,3.7983,3.8015,3.8046,3.8074,3.8098,3.8091,3.8125,3.8176,3.8205,3.8263,3.8312,3.8355,3.8369,3.835,3.8347,3.8363,3.837,3.8371,3.8374,3.8175,3.8343,3.8342,3.8341,3.834,3.8339,3.7757,3.7805,3.7827,3.7855,3.787,3.7915,3.7942,3.7932,3.7961,3.7995,3.8033,3.8081,3.8119,3.8201,3.8211,3.8255,3.8247,3.8312,3.8254,3.8257,3.8251,3.825,3.8256,3.8324,3.8326,3.8328,3.8329,0,3.7672,3.7669,3.7743,3.7761,3.7767,3.7819,3.7835,3.7877,3.7879,3.7937,3.795,3.7955,3.8005,3.8004,3.8062,3.8061,3.8149,3.8138,3.814,3.8139,3.8199,3.8195,3.8388,3.8414,3.8239,3.824,3.8242,0,3.7543,3.7606,3.7599,3.7642,3.7713,3.77,3.7771,3.778,3.7801,3.7846,3.7821,3.7865,3.7857,3.7901,3.7898,3.797,3.798,3.7985,3.7984,3.7989,3.7989,3.8007,3.8001,3.7976,3.7975,3.7975,3.7974,0,3.7413,3.7482,3.7552,3.7568,3.7594,3.7628,3.764,3.7664,3.7691,3.7726,3.7744,3.7785,3.7809,3.7842,3.7839,3.78,3.7926,3.7872,3.7931,3.7931,3.7961,3.796,3.8129,3.7973,3.7972,3.7972,3.7972,0,3.7309,3.7343,3.7443,3.7465,3.7484,3.753,3.757,3.7608,3.7635,3.7636,3.7664,3.7648,3.7709,3.7655,3.774,3.769,3.7715,3.7724,3.7728,3.7736,3.7678,3.7777,3.7935,3.7953,3.774,3.7738,3.7737,0,3.7163,3.7263,3.7253,3.7349,3.7395,3.7364,3.7415,3.7439,3.7445,3.7486,3.7492,3.754,3.7499,3.7515,3.7556,3.7565,3.763,3.7556,3.7621,3.7623,3.7617,3.7762,3.7787,3.7899,3.7712,3.7714,3.7716,0,3.7049,3.7079,3.7097,3.7115,3.7143,3.7182,3.724,3.7284,3.7312,3.7341,3.7391,3.7457,3.743,3.7455,3.7447,3.749,3.7586,3.7456,3.7457,3.7482,3.7698,3.7722,3.7741,3.7571,3.7574,3.7577,3.7697,0,3.6898,3.6947,3.6994,3.7034,3.7063,3.7122,3.712,3.7151,3.7139,3.7144,3.7217,3.7237,3.7283,3.7303,3.7293,3.7391,3.7376,3.7346,3.7297,3.7391,3.7431,3.7447,3.7238,3.7236,3.7235,3.7234,0,0,3.6761,3.6831,3.6818,3.6873,3.6897,3.6864,3.6928,3.6948,3.699,3.7008,3.6979,3.7076,3.7094,3.7183,3.7212,3.723,3.7249,3.7216,3.7345,3.7358,3.7369,3.7412,3.7428,3.7232,3.7231,3.7231,3.723,0,3.6705,3.672,3.6783,3.6802,3.683,3.6831,3.6846,3.6869,3.6875,3.6945,3.692,3.6963,3.704,3.7063,3.7085,3.7204,3.7184,3.7218,3.7283,3.7333,3.7347,3.7359,3.7404,3.742,3.7227,3.7227,3.7228,0,3.6595,3.6611,3.664,3.6691,3.671,3.6758,3.6704,3.6757,3.6794,3.6758,3.6828,3.684,3.687,3.6954,3.6991,3.6967,3.7125,3.7074,3.7082,3.7087,3.7136,3.7152,3.7167,3.697,3.6969,3.6968,0,0,3.6548,3.6593,3.6607,3.6679,3.6692,3.6695,3.672,3.6712,3.6738,3.6749,3.6763,3.6792,3.6836,3.6866,3.6908,3.7,3.7007,3.7042,3.7054,3.7064,3.7075,3.7126,3.7143,3.6965,3.6965,3.6965,0,0,3.6527,3.6545,3.6528,3.6611,3.6636,3.6657,3.6702,3.6682,3.6719,3.6713,3.6702,3.6709,3.6787,3.68,3.6754,3.6891,3.6842,3.6853,3.6881,3.6896,3.6908,3.6905,3.6705,0,0,0,0,0,3.6469,3.6542,3.6527,3.654,3.6606,3.6665,3.6673,3.6665,3.663,3.6666,3.6675,3.6651,3.6773,3.6733,3.6747,3.6799,3.6921,3.6929,3.6936,3.6994,3.701,3.7023,0,0,0,0,0,0,3.6474,3.6491,3.6525,3.6548,3.6563,3.6662,3.6601,3.6601,3.6626,3.6621,3.665,3.6652,3.6647,3.6725,3.6738,3.6787,3.67,3.6924,3.6931,3.6937,3.6999,3.7012,3.7024,0,0,0,0,0,3.6478,3.6491,3.6598,3.6547,3.656,3.6567,3.6598,3.6598,3.6617,3.6631,3.6633,3.6609,3.6649,3.6659,3.6733,3.6782,3.6691,3.6696,3.6928,3.6934,3.6938,3.7006,0,0,0,0,0,0,3.6481,3.6492,3.66,3.6604,3.6518,3.6561,3.6567,3.6595,3.6627,3.6628,3.659,3.6585,3.6651,3.6659,3.6667,3.678,3.6683,3.6689,3.6692,3.6932,3.6936,3.694,0,0,0,0,0,0,3.6485,3.6495,3.6602,3.6566,3.6566,3.6556,3.6562,3.6623,3.6627,3.6583,3.658,3.6588,3.6639,3.6659,3.6665,3.6761,3.6678,3.6683,3.6686,3.6688,3.6936,3.6939,0,0,0,0,0,0,3.6489,3.6498,3.6565,3.6565,3.6564,3.6605,3.661,3.6678,3.6595,3.6583,3.6587,3.6584,3.664,3.6646,3.6664,3.6757,3.676,3.6678,3.6681,3.6683,3.6685,0,0,0,0,0,0,0,3.6493,3.6434,3.6578,3.6564,3.6563,3.6638,3.6639,3.664,3.6594,3.6591,3.6588,3.6585,3.665,3.6656,3.6661,3.6754,0,0,3.6677,3.668,0,0,0,0,0,0,0,0,3.643,3.6433,3.6579,3.6579,3.658,3.6638,3.6639,3.6639,3.6594,3.6591,3.6589,3.6587,3.6652,3.6656,3.666,0,0,0,0,0,0,0,0,0,0,0,0,0,0,0,3.6579,3.6579,0,3.6638,3.6639,3.6639,3.6593,3.6591,3.6589,3.6587,3.6653,3.6656,3.666,0,0,0,0,0,0,0,0,0,0,0,0,0,0,0,0,0,0,0,0,0,0,0,0,0,0,0,0,0,0,0,0,0,0,0,0,0,0,0,0,0,0,0,0,0,0,0,0,0,0,0,0,0,0,0,0,0,0,0,0,0,0,0,0,0,0,0,0,0]}],[{"header":{"parameterUnit":"kt","parameterCategory":2,"dx":1,"dy":1,"la1":30.253999710083008,"la2":30.299108505249023,"lo1":-89.0895004272461,"lo2":-89.04439544677734,"nx":28,"ny":28,"refTime":"2022-10-11T21:00:00:Z","depth":0,"parameterNumber":2,"parameterNumberName":"V-component_of_WINDS"},"data":[0.1164,0.1121,0.1101,0.104,0.1012,0.0966,0.0943,0.0909,0.0877,0.0816,0.0777,0.0749,0.0706,0.065,0.0604,0.0591,0.0572,0.0571,0.0556,0.0584,0.0587,0.0589,0.0599,0.0568,0.0568,0.0529,0.0529,0.0529,0.1182,0.1155,0.1118,0.1069,0.1036,0.1025,0.0983,0.0955,0.0913,0.0874,0.0834,0.0778,0.0729,0.0685,0.0634,0.0608,0.0598,0.0595,0.0596,0.0588,0.0618,0.0629,0.0604,0.0604,0.0604,0.0604,0.0604,0.0604,0.121,0.1186,0.1145,0.1105,0.1075,0.1041,0.1012,0.0981,0.0942,0.089,0.0872,0.0823,0.0776,0.0704,0.0673,0.0631,0.063,0.0619,0.0616,0.0613,0.0612,0.0666,0.0622,0.0621,0.0621,0.0621,0.0621,0,0.1224,0.121,0.1174,0.1132,0.1102,0.1066,0.103,0.1011,0.0971,0.094,0.0894,0.0863,0.0799,0.075,0.0697,0.0667,0.0649,0.0646,0.0637,0.0645,0.0658,0.0648,0.0695,0.0647,0.0647,0.0647,0.0647,0.0647,0.1249,0.1224,0.1173,0.115,0.1126,0.1089,0.1062,0.103,0.1002,0.095,0.0928,0.088,0.084,0.0765,0.0725,0.0676,0.0666,0.065,0.0659,0.0667,0.0663,0.0664,0.0659,0.0648,0.0648,0.0648,0.0648,0,0.1264,0.1234,0.1188,0.1139,0.1126,0.1099,0.1056,0.1028,0.1001,0.0958,0.0946,0.0902,0.0855,0.0818,0.0756,0.0738,0.0685,0.0678,0.07,0.0696,0.0676,0.0677,0.0621,0.0611,0.0645,0.0645,0.0645,0,0.1273,0.124,0.1196,0.1171,0.1132,0.1102,0.1063,0.1036,0.0999,0.0965,0.0942,0.091,0.0868,0.0829,0.0802,0.0753,0.0742,0.0724,0.0717,0.0725,0.0727,0.0707,0.0708,0.0705,0.0705,0.0705,0.0706,0,0.1299,0.1238,0.1198,0.1179,0.1123,0.1104,0.1079,0.1038,0.1012,0.0971,0.0953,0.0908,0.0882,0.0846,0.0811,0.0819,0.0752,0.0754,0.0733,0.0733,0.0719,0.072,0.0681,0.0706,0.0706,0.0706,0.0706,0,0.1301,0.1266,0.1213,0.1166,0.1151,0.1123,0.1078,0.1047,0.1004,0.0987,0.0955,0.0934,0.0891,0.0896,0.0834,0.0853,0.0828,0.0808,0.0805,0.0798,0.0804,0.0784,0.0753,0.0747,0.0792,0.0792,0.0793,0,0.1338,0.1277,0.1252,0.1201,0.1168,0.1145,0.1113,0.1078,0.1052,0.1017,0.0987,0.0947,0.0944,0.0926,0.0901,0.0867,0.0843,0.0869,0.0813,0.0811,0.0824,0.0795,0.0799,0.0764,0.0802,0.0801,0.08,0,0.1364,0.1301,0.1294,0.127,0.1222,0.1194,0.1158,0.1113,0.1092,0.1055,0.1022,0.0966,0.096,0.0931,0.091,0.0885,0.0858,0.0882,0.088,0.0876,0.0804,0.0808,0.0802,0.0848,0.0847,0.0846,0.0807,0,0.137,0.1337,0.1317,0.1269,0.1242,0.121,0.1176,0.1151,0.1135,0.1109,0.106,0.1021,0.0973,0.0959,0.0942,0.0899,0.09,0.0894,0.0895,0.0878,0.0863,0.0858,0.0919,0.0919,0.0918,0.0918,0,0,0.1412,0.1364,0.1339,0.1305,0.1281,0.1259,0.1226,0.12,0.1146,0.1129,0.113,0.1045,0.1013,0.0957,0.0949,0.0931,0.0918,0.0926,0.0887,0.0883,0.088,0.0866,0.0861,0.0918,0.0918,0.0918,0.0918,0,0.1408,0.1382,0.1353,0.1325,0.1283,0.1259,0.1252,0.1205,0.1187,0.1142,0.1122,0.1088,0.1023,0.099,0.0965,0.0933,0.0918,0.0921,0.0915,0.0887,0.0883,0.0881,0.0866,0.0862,0.0917,0.0917,0.0917,0,0.1425,0.1394,0.1377,0.1324,0.1296,0.1263,0.1257,0.1222,0.1196,0.1171,0.1126,0.1099,0.1054,0.1007,0.0985,0.0984,0.0919,0.0934,0.0934,0.093,0.0901,0.0897,0.0894,0.0936,0.0937,0.0937,0,0,0.1426,0.1396,0.1352,0.1321,0.1305,0.1269,0.1248,0.123,0.1192,0.1177,0.1143,0.1105,0.1066,0.1041,0.1003,0.0957,0.0943,0.0938,0.0937,0.0937,0.0933,0.0903,0.0899,0.0938,0.0938,0.0938,0,0,0.1425,0.1374,0.1366,0.1326,0.1293,0.1245,0.1226,0.1213,0.1177,0.1176,0.1141,0.113,0.1086,0.106,0.1076,0.1002,0.1003,0.0999,0.102,0.1019,0.1018,0.1024,0.1061,0,0,0,0,0,0.1405,0.1381,0.1374,0.1362,0.1295,0.125,0.1241,0.1213,0.1215,0.12,0.117,0.1156,0.1061,0.1074,0.1061,0.1044,0.0949,0.0947,0.0945,0.0961,0.096,0.0959,0,0,0,0,0,0,0.14,0.1386,0.1374,0.1327,0.1311,0.125,0.1247,0.1239,0.1216,0.1215,0.1163,0.1155,0.1128,0.1078,0.1067,0.1051,0.1065,0.0948,0.0946,0.0945,0.0961,0.096,0.0959,0,0,0,0,0,0.1396,0.1385,0.1286,0.1326,0.1313,0.1271,0.1248,0.1241,0.1223,0.1175,0.1167,0.1204,0.1129,0.1118,0.1071,0.1057,0.1072,0.1068,0.0947,0.0946,0.0944,0.096,0,0,0,0,0,0,0.1393,0.1377,0.1282,0.1277,0.1334,0.1274,0.1264,0.1243,0.1184,0.1176,0.1215,0.1215,0.1129,0.112,0.1111,0.1061,0.1078,0.1074,0.1072,0.0946,0.0945,0.0944,0,0,0,0,0,0,0.1383,0.1373,0.128,0.1291,0.1287,0.1277,0.1268,0.1224,0.1184,0.1227,0.1225,0.1216,0.114,0.1122,0.1115,0.1048,0.1083,0.1079,0.1076,0.1075,0.0945,0.0944,0,0,0,0,0,0,0.1378,0.1369,0.1292,0.1289,0.1285,0.1224,0.1237,0.1169,0.1197,0.123,0.1199,0.1199,0.1142,0.1135,0.1117,0.1054,0.105,0.1083,0.108,0.1078,0.1077,0,0,0,0,0,0,0,0.1374,0.1439,0.1314,0.1287,0.1284,0.1229,0.1227,0.1226,0.1197,0.1198,0.1199,0.1199,0.1105,0.1101,0.1096,0.1058,0,0,0.1083,0.1081,0,0,0,0,0,0,0,0,0.1442,0.144,0.1314,0.1313,0.1312,0.1228,0.1227,0.1226,0.1197,0.1198,0.1198,0.1199,0.1104,0.11,0.1097,0,0,0,0,0,0,0,0,0,0,0,0,0,0,0,0.1314,0.1313,0,0.1228,0.1227,0.1226,0.1198,0.1198,0.1198,0.1199,0.1103,0.11,0.1097,0,0,0,0,0,0,0,0,0,0,0,0,0,0,0,0,0,0,0,0,0,0,0,0,0,0,0,0,0,0,0,0,0,0,0,0,0,0,0,0,0,0,0,0,0,0,0,0,0,0,0,0,0,0,0,0,0,0,0,0,0,0,0,0,0,0,0,0,0]}]]]